QPF
0.00 0.00 0.00 0.00 0.00 0.01 0.00 0.01 0.01 0.01 0.02 0.02 0.01 0.01 0.00 0.00 0.00 0.00 0.00 0.00 0.01 0.01 0.00 0.00 0.00 0.00 0.00 0.00 0.00 0.00 0.00 0.00 0.00 0.00 0.00 0.00 0.00 0.00 0.00 0.00 0.00 0.00 0.00 0.00 0.00 0.00 0.00 0.00 0.00
0.00 0.00 0.00 0.00 0.00 0.00 0.01 0.01 0.01 0.01 0.02 0.01 0.01 0.00 0.00 0.00 0.00 0.00 0.00 0.00 0.01 0.00 0.00 0.00 0.00 0.00 0.00 0.00 0.00 0.00 0.00 0.00 0.00 0.00 0.00 0.00 0.00 0.00 0.00 0.00 0.00 0.00 0.00 0.01 0.01 0.00 0.00 0.00 0.00
0.00 0.00 0.00 0.00 0.00 0.00 0.01 0.01 0.02 0.03 0.03 0.03 0.02 0.01 0.00 0.00 0.00 0.00 0.01 0.01 0.01 0.00 0.00 0.00 0.00 0.00 0.00 0.00 0.00 0.00 0.00 0.00 0.00 0.00 0.00 0.00 0.00 0.00 0.00 0.00 0.00 0.00 0.01 0.01 0.00 0.00 0.00 0.01 0.00
0.00 0.00 0.00 0.00 0.00 0.00 0.02 0.02 0.03 0.03 0.03 0.03 0.02 0.01 0.01 0.01 0.01 0.02 0.02 0.02 0.01 0.00 0.00 0.00 0.00 0.00 0.00 0.00 0.00 0.00 0.00 0.00 0.00 0.00 0.00 0.00 0.00 0.00 0.00 0.00 0.00 0.01 0.00 0.00 0.00 0.00 0.00 0.01 0.00
0.00 0.00 0.00 0.00 0.00 0.01 0.01 0.02 0.02 0.03 0.02 0.02 0.02 0.02 0.02 0.01 0.02 0.04 0.04 0.03 0.01 0.00 0.00 0.00 0.00 0.00 0.00 0.00 0.00 0.00 0.00 0.00 0.00 0.00 0.00 0.00 0.00 0.00 0.00 0.00 0.00 0.00 0.00 0.00 0.00 0.00 0.00 0.01 0.00
0.00 0.00 0.00 0.00 0.00 0.01 0.01 0.02 0.02 0.02 0.03 0.02 0.03 0.02 0.05 0.07 0.06 0.07 0.06 0.02 0.01 0.00 0.00 0.00 0.00 0.00 0.00 0.00 0.00 0.00 0.00 0.00 0.00 0.00 0.00 0.00 0.00 0.00 0.00 0.00 0.00 0.00 0.00 0.01 0.00 0.00 0.00 0.00 0.01
0.00 0.00 0.00 0.00 0.00 0.01 0.01 0.01 0.01 0.01 0.01 0.03 0.03 0.03 0.09 0.11 0.09 0.05 0.03 0.01 0.01 0.00 0.00 0.00 0.01 0.01 0.01 0.01 0.01 0.01 0.00 0.00 0.00 0.00 0.00 0.00 0.00 0.00 0.00 0.00 0.00 0.00 0.00 0.00 0.01 0.01 0.01 0.01 0.01
0.00 0.00 0.00 0.00 0.00 0.01 0.01 0.02 0.02 0.02 0.01 0.02 0.02 0.02 0.05 0.07 0.04 0.02 0.01 0.01 0.01 0.00 0.00 0.02 0.02 0.02 0.02 0.02 0.01 0.01 0.00 0.00 0.00 0.00 0.00 0.00 0.00 0.01 0.01 0.01 0.00 0.00 0.00 0.00 0.01 0.01 0.02 0.02 0.02
0.00 0.00 0.00 0.00 0.00 0.01 0.03 0.03 0.02 0.02 0.02 0.02 0.01 0.01 0.02 0.04 0.02 0.02 0.02 0.01 0.01 0.01 0.03 0.08 0.05 0.03 0.03 0.03 0.02 0.02 0.01 0.01 0.01 0.00 0.01 0.01 0.00 0.00 0.00 0.00 0.01 0.01 0.02 0.02 0.03 0.02 0.02 0.03 0.03
0.00 0.00 0.00 0.00 0.00 0.01 0.02 0.05 0.04 0.02 0.01 0.01 0.01 0.01 0.01 0.02 0.02 0.02 0.02 0.02 0.02 0.01 0.02 0.07 0.08 0.04 0.04 0.02 0.02 0.02 0.02 0.01 0.00 0.00 0.00 0.00 0.00 0.00 0.00 0.01 0.02 0.03 0.04 0.04 0.04 0.03 0.03 0.03 0.03
0.00 0.00 0.00 0.00 0.00 0.00 0.01 0.02 0.02 0.01 0.01 0.01 0.00 0.01 0.02 0.05 0.07 0.05 0.04 0.04 0.04 0.03 0.03 0.03 0.04 0.03 0.04 0.04 0.03 0.03 0.02 0.02 0.01 0.01 0.01 0.01 0.01 0.00 0.01 0.01 0.01 0.01 0.02 0.02 0.03 0.03 0.03 0.02 0.02
0.00 0.00 0.00 0.00 0.00 0.00 0.01 0.01 0.01 0.01 0.01 0.00 0.00 0.01 0.03 0.03 0.04 0.05 0.06 0.05 0.05 0.04 0.04 0.04 0.03 0.04 0.05 0.06 0.06 0.04 0.03 0.02 0.02 0.03 0.03 0.02 0.02 0.02 0.02 0.01 0.01 0.01 0.01 0.03 0.04 0.04 0.03 0.03 0.03
0.00 0.00 0.00 0.00 0.00 0.00 0.00 0.01 0.01 0.01 0.01 0.00 0.00 0.01 0.01 0.02 0.03 0.05 0.06 0.07 0.07 0.06 0.06 0.05 0.06 0.06 0.06 0.07 0.07 0.05 0.05 0.05 0.07 0.08 0.07 0.06 0.05 0.05 0.04 0.03 0.03 0.03 0.03 0.04 0.04 0.04 0.04 0.05 0.05
0.00 0.00 0.01 0.01 0.01 0.01 0.01 0.00 0.01 0.01 0.01 0.01 0.01 0.01 0.01 0.02 0.03 0.06 0.06 0.08 0.08 0.08 0.09 0.09 0.09 0.07 0.07 0.08 0.09 0.09 0.07 0.07 0.07 0.08 0.08 0.08 0.07 0.06 0.05 0.05 0.05 0.06 0.06 0.06 0.05 0.04 0.05 0.04 0.04
0.00 0.00 0.00 0.01 0.01 0.02 0.01 0.01 0.01 0.01 0.01 0.01 0.01 0.01 0.02 0.03 0.04 0.06 0.08 0.08 0.07 0.08 0.11 0.11 0.10 0.10 0.10 0.10 0.11 0.11 0.11 0.11 0.08 0.06 0.07 0.08 0.07 0.06 0.06 0.06 0.06 0.06 0.05 0.06 0.06 0.06 0.06 0.04 0.04
0.00 0.00 0.00 0.00 0.00 0.01 0.02 0.01 0.00 0.00 0.00 0.01 0.01 0.02 0.03 0.04 0.05 0.06 0.07 0.07 0.09 0.10 0.11 0.11 0.10 0.12 0.13 0.13 0.12 0.13 0.13 0.13 0.11 0.08 0.08 0.07 0.06 0.05 0.05 0.05 0.06 0.07 0.06 0.07 0.06 0.06 0.06 0.05 0.03
0.00 0.00 0.00 0.00 0.00 0.00 0.00 0.00 0.00 0.00 0.01 0.01 0.02 0.02 0.04 0.05 0.06 0.07 0.07 0.08 0.10 0.08 0.08 0.09 0.10 0.12 0.14 0.15 0.15 0.15 0.16 0.15 0.13 0.10 0.08 0.08 0.07 0.06 0.05 0.05 0.06 0.07 0.08 0.08 0.07 0.07 0.06 0.06 0.04
0.00 0.00 0.00 0.00 0.00 0.00 0.00 0.00 0.01 0.01 0.01 0.01 0.01 0.03 0.05 0.06 0.09 0.08 0.08 0.08 0.08 0.08 0.08 0.10 0.13 0.18 0.22 0.23 0.22 0.19 0.16 0.14 0.14 0.15 0.11 0.09 0.08 0.08 0.08 0.07 0.07 0.07 0.06 0.06 0.06 0.06 0.06 0.05 0.05
0.00 0.00 0.00 0.00 0.00 0.00 0.00 0.00 0.01 0.01 0.01 0.02 0.03 0.03 0.04 0.05 0.07 0.08 0.10 0.09 0.08 0.09 0.10 0.09 0.10 0.14 0.20 0.24 0.19 0.16 0.14 0.14 0.14 0.16 0.15 0.12 0.09 0.09 0.10 0.10 0.09 0.09 0.08 0.07 0.07 0.07 0.06 0.06 0.06
0.00 0.00 0.00 0.00 0.00 0.00 0.00 0.00 0.01 0.02 0.03 0.03 0.03 0.03 0.04 0.08 0.09 0.08 0.08 0.07 0.07 0.08 0.07 0.08 0.08 0.09 0.12 0.14 0.14 0.13 0.13 0.14 0.14 0.14 0.14 0.14 0.13 0.13 0.13 0.13 0.11 0.09 0.09 0.09 0.10 0.10 0.10 0.10 0.09
0.00 0.00 0.00 0.00 0.00 0.00 0.00 0.00 0.01 0.01 0.02 0.02 0.03 0.04 0.06 0.09 0.10 0.09 0.07 0.06 0.04 0.04 0.06 0.06 0.06 0.05 0.06 0.07 0.12 0.14 0.17 0.17 0.16 0.15 0.16 0.18 0.17 0.16 0.17 0.16 0.11 0.08 0.06 0.06 0.07 0.07 0.08 0.09 0.08
0.00 0.00 0.00 0.00 0.00 0.00 0.00 0.00 0.01 0.01 0.01 0.01 0.02 0.03 0.04 0.07 0.06 0.06 0.05 0.04 0.02 0.03 0.04 0.06 0.06 0.05 0.04 0.06 0.08 0.09 0.12 0.16 0.21 0.21 0.19 0.20 0.19 0.18 0.17 0.15 0.12 0.09 0.07 0.05 0.04 0.05 0.04 0.04 0.05
0.00 0.00 0.00 0.00 0.00 0.00 0.00 0.00 0.00 0.00 0.01 0.01 0.02 0.02 0.02 0.03 0.04 0.04 0.03 0.02 0.02 0.02 0.04 0.06 0.06 0.07 0.06 0.07 0.08 0.09 0.11 0.14 0.18 0.19 0.18 0.20 0.20 0.17 0.14 0.12 0.11 0.09 0.06 0.04 0.04 0.04 0.05 0.05 0.05
0.00 0.00 0.00 0.01 0.00 0.00 0.00 0.00 0.00 0.01 0.01 0.01 0.01 0.02 0.02 0.03 0.04 0.02 0.01 0.01 0.03 0.05 0.08 0.09 0.09 0.07 0.08 0.08 0.09 0.10 0.11 0.12 0.16 0.17 0.19 0.18 0.18 0.15 0.11 0.10 0.10 0.09 0.08 0.07 0.05 0.04 0.04 0.06 0.07
0.00 0.00 0.00 0.00 0.00 0.00 0.00 0.00 0.00 0.00 0.01 0.01 0.01 0.01 0.03 0.03 0.02 0.02 0.02 0.02 0.05 0.07 0.09 0.08 0.06 0.05 0.06 0.07 0.09 0.11 0.11 0.13 0.15 0.16 0.16 0.16 0.16 0.13 0.10 0.08 0.07 0.06 0.07 0.08 0.07 0.06 0.05 0.04 0.06
0.00 0.00 0.00 0.00 0.00 0.00 0.00 0.00 0.00 0.00 0.00 0.00 0.00 0.01 0.03 0.03 0.03 0.03 0.04 0.06 0.07 0.07 0.07 0.06 0.05 0.05 0.06 0.07 0.09 0.12 0.13 0.13 0.14 0.16 0.16 0.15 0.14 0.11 0.09 0.08 0.07 0.06 0.08 0.08 0.08 0.07 0.07 0.05 0.04
0.00 0.00 0.00 0.00 0.00 0.00 0.00 0.00 0.00 0.00 0.00 0.01 0.01 0.03 0.05 0.03 0.03 0.04 0.06 0.07 0.07 0.07 0.07 0.07 0.06 0.05 0.05 0.05 0.06 0.07 0.08 0.09 0.09 0.10 0.11 0.12 0.10 0.09 0.07 0.06 0.07 0.06 0.05 0.07 0.09 0.08 0.07 0.06 0.05
0.00 0.00 0.00 0.00 0.00 0.00 0.00 0.00 0.00 0.00 0.00 0.01 0.01 0.03 0.05 0.05 0.03 0.03 0.04 0.08 0.09 0.08 0.09 0.07 0.08 0.08 0.05 0.05 0.05 0.05 0.05 0.06 0.07 0.09 0.10 0.10 0.09 0.08 0.09 0.07 0.06 0.05 0.04 0.04 0.04 0.05 0.06 0.06 0.05
0.00 0.00 0.00 0.00 0.00 0.01 0.00 0.00 0.00 0.00 0.01 0.02 0.02 0.04 0.04 0.04 0.03 0.02 0.04 0.06 0.09 0.11 0.11 0.09 0.08 0.09 0.10 0.09 0.08 0.06 0.06 0.08 0.08 0.09 0.10 0.11 0.11 0.09 0.10 0.08 0.07 0.06 0.05 0.04 0.04 0.03 0.04 0.04 0.05
0.00 0.00 0.01 0.01 0.01 0.00 0.01 0.00 0.01 0.00 0.01 0.03 0.02 0.03 0.04 0.03 0.02 0.02 0.03 0.04 0.07 0.10 0.12 0.10 0.08 0.07 0.08 0.10 0.10 0.12 0.16 0.13 0.10 0.08 0.07 0.09 0.10 0.11 0.12 0.11 0.10 0.08 0.06 0.06 0.05 0.05 0.04 0.03 0.04
MSLP
1011.49 1012.57 1013.74 1014.76 1015.45 1015.67 1015.39 1014.66 1013.64 1012.52 1011.49 1010.70 1010.21 1009.99 1009.95 1009.95 1009.88 1009.65 1009.25 1008.76 1008.28 1007.95 1007.85 1008.06 1008.54 1009.23 1009.98 1010.69 1011.25 1011.63 1011.82 1011.89 1011.92 1012.00 1012.19 1012.50 1012.90 1013.35 1013.77 1014.10 1014.32 1014.43 1014.45 1014.42 1014.39 1014.40 1014.47 1014.58 1014.74
1012.08 1013.32 1014.55 1015.52 1016.05 1016.03 1015.45 1014.40 1013.07 1011.67 1010.44 1009.51 1008.95 1008.72 1008.72 1008.80 1008.82 1008.70 1008.41 1008.02 1007.64 1007.39 1007.37 1007.64 1008.18 1008.91 1009.72 1010.48 1011.09 1011.52 1011.77 1011.89 1011.97 1012.09 1012.30 1012.61 1013.01 1013.43 1013.83 1014.14 1014.33 1014.42 1014.42 1014.38 1014.35 1014.35 1014.40 1014.51 1014.65
1012.65 1013.98 1015.19 1016.07 1016.43 1016.18 1015.34 1014.04 1012.48 1010.91 1009.55 1008.55 1007.96 1007.74 1007.77 1007.90 1007.99 1007.95 1007.75 1007.45 1007.16 1006.99 1007.04 1007.35 1007.93 1008.68 1009.49 1010.26 1010.90 1011.36 1011.64 1011.81 1011.94 1012.09 1012.32 1012.64 1013.02 1013.42 1013.78 1014.06 1014.24 1014.32 1014.33 1014.30 1014.28 1014.30 1014.37 1014.48 1014.63
1013.14 1014.48 1015.62 1016.36 1016.54 1016.09 1015.07 1013.61 1011.95 1010.31 1008.93 1007.93 1007.35 1007.15 1007.20 1007.36 1007.49 1007.49 1007.36 1007.14 1006.93 1006.83 1006.93 1007.27 1007.85 1008.58 1009.36 1010.10 1010.71 1011.16 1011.46 1011.66 1011.82 1012.01 1012.26 1012.58 1012.95 1013.32 1013.65 1013.91 1014.07 1014.16 1014.19 1014.20 1014.23 1014.29 1014.40 1014.54 1014.69
1013.54 1014.81 1015.82 1016.39 1016.39 1015.79 1014.66 1013.16 1011.50 1009.92 1008.60 1007.67 1007.15 1006.98 1007.04 1007.21 1007.34 1007.37 1007.28 1007.12 1006.97 1006.93 1007.07 1007.42 1007.97 1008.64 1009.35 1010.01 1010.56 1010.98 1011.27 1011.49 1011.68 1011.90 1012.17 1012.49 1012.84 1013.19 1013.48 1013.71 1013.87 1013.97 1014.04 1014.11 1014.21 1014.33 1014.49 1014.67 1014.84
1013.84 1014.97 1015.81 1016.19 1016.03 1015.33 1014.18 1012.72 1011.17 1009.72 1008.55 1007.74 1007.29 1007.16 1007.23 1007.37 1007.49 1007.51 1007.45 1007.33 1007.24 1007.25 1007.41 1007.75 1008.25 1008.83 1009.44 1010.00 1010.46 1010.83 1011.10 1011.33 1011.55 1011.80 1012.10 1012.43 1012.76 1013.07 1013.33 1013.53 1013.68 1013.79 1013.89 1014.02 1014.19 1014.39 1014.61 1014.82 1015.01
1014.05 1014.99 1015.62 1015.81 1015.52 1014.77 1013.65 1012.30 1010.92 1009.67 1008.68 1008.00 1007.64 1007.53 1007.58 1007.69 1007.77 1007.79 1007.73 1007.66 1007.62 1007.68 1007.86 1008.18 1008.62 1009.11 1009.60 1010.05 1010.42 1010.73 1010.99 1011.23 1011.49 1011.78 1012.10 1012.43 1012.75 1013.03 1013.24 1013.40 1013.52 1013.62 1013.76 1013.93 1014.15 1014.41 1014.69 1014.94 1015.14
1014.17 1014.90 1015.30 1015.31 1014.91 1014.13 1013.07 1011.88 1010.70 1009.65 1008.84 1008.30 1008.01 1007.91 1007.92 1007.98 1008.01 1008.01 1007.98 1007.95 1007.97 1008.08 1008.29 1008.60 1008.98 1009.38 1009.77 1010.11 1010.41 1010.67 1010.93 1011.20 1011.50 1011.84 1012.19 1012.54 1012.83 1013.07 1013.23 1013.33 1013.41 1013.49 1013.62 1013.81 1014.06 1014.36 1014.67 1014.94 1015.15
1014.18 1014.69 1014.88 1014.72 1014.21 1013.43 1012.46 1011.41 1010.42 1009.56 1008.91 1008.46 1008.21 1008.09 1008.06 1008.06 1008.06 1008.05 1008.04 1008.07 1008.17 1008.34 1008.59 1008.90 1009.24 1009.57 1009.88 1010.15 1010.39 1010.63 1010.89 1011.20 1011.56 1011.95 1012.34 1012.70 1012.99 1013.18 1013.29 1013.33 1013.34 1013.38 1013.48 1013.65 1013.91 1014.21 1014.53 1014.81 1015.01
1014.09 1014.39 1014.38 1014.06 1013.47 1012.68 1011.78 1010.87 1010.02 1009.32 1008.77 1008.39 1008.14 1007.99 1007.91 1007.85 1007.82 1007.82 1007.86 1007.97 1008.15 1008.39 1008.70 1009.02 1009.34 1009.63 1009.88 1010.10 1010.31 1010.55 1010.84 1011.20 1011.62 1012.07 1012.50 1012.87 1013.15 1013.31 1013.37 1013.34 1013.30 1013.28 1013.33 1013.47 1013.69 1013.98 1014.27 1014.54 1014.73
1013.92 1014.02 1013.83 1013.38 1012.72 1011.92 1011.08 1010.25 1009.51 1008.90 1008.41 1008.05 1007.78 1007.59 1007.46 1007.36 1007.33 1007.35 1007.46 1007.65 1007.91 1008.24 1008.60 1008.95 1009.27 1009.53 1009.75 1009.95 1010.15 1010.40 1010.73 1011.14 1011.61 1012.10 1012.57 1012.97 1013.24 1013.39 1013.41 1013.35 1013.25 1013.18 1013.18 1013.27 1013.45 1013.68 1013.94 1014.17 1014.34
1013.70 1013.63 1013.29 1012.73 1012.01 1011.20 1010.39 1009.62 1008.94 1008.36 1007.90 1007.52 1007.22 1006.98 1006.81 1006.70 1006.67 1006.74 1006.92 1007.19 1007.54 1007.94 1008.34 1008.71 1009.03 1009.29 1009.49 1009.68 1009.89 1010.16 1010.51 1010.95 1011.46 1011.99 1012.49 1012.90 1013.18 1013.33 1013.35 1013.27 1013.16 1013.07 1013.03 1013.08 1013.21 1013.39 1013.59 1013.77 1013.91
1013.51 1013.30 1012.84 1012.19 1011.42 1010.60 1009.80 1009.06 1008.40 1007.83 1007.34 1006.93 1006.59 1006.31 1006.11 1006.01 1006.01 1006.13 1006.36 1006.70 1007.12 1007.56 1007.99 1008.38 1008.69 1008.94 1009.14 1009.32 1009.54 1009.82 1010.18 1010.63 1011.15 1011.69 1012.19 1012.61 1012.91 1013.07 1013.12 1013.08 1013.00 1012.92 1012.89 1012.91 1013.00 1013.13 1013.28 1013.41 1013.51
1013.42 1013.10 1012.55 1011.84 1011.05 1010.23 1009.43 1008.69 1008.03 1007.43 1006.91 1006.45 1006.06 1005.76 1005.55 1005.45 1005.48 1005.64 1005.92 1006.30 1006.74 1007.19 1007.62 1007.99 1008.30 1008.54 1008.73 1008.91 1009.13 1009.40 1009.76 1010.19 1010.67 1011.18 1011.65 1012.07 1012.38 1012.59 1012.70 1012.74 1012.73 1012.72 1012.73 1012.76 1012.84 1012.93 1013.03 1013.11 1013.17
1013.48 1013.08 1012.48 1011.75 1010.96 1010.15 1009.36 1008.61 1007.92 1007.28 1006.71 1006.19 1005.76 1005.43 1005.21 1005.12 1005.16 1005.35 1005.64 1006.02 1006.44 1006.87 1007.27 1007.62 1007.90 1008.13 1008.32 1008.51 1008.71 1008.97 1009.29 1009.66 1010.08 1010.51 1010.94 1011.32 1011.64 1011.90 1012.10 1012.24 1012.35 1012.44 1012.53 1012.62 1012.71 1012.79 1012.85 1012.90 1012.92
1013.68 1013.24 1012.64 1011.93 1011.16 1010.38 1009.60 1008.84 1008.11 1007.42 1006.78 1006.20 1005.72 1005.35 1005.11 1005.02 1005.07 1005.24 1005.52 1005.86 1006.24 1006.61 1006.95 1007.26 1007.52 1007.74 1007.94 1008.13 1008.34 1008.57 1008.83 1009.12 1009.44 1009.78 1010.11 1010.44 1010.76 1011.06 1011.35 1011.61 1011.85 1012.08 1012.28 1012.44 1012.57 1012.66 1012.72 1012.73 1012.73
1013.97 1013.53 1012.97 1012.31 1011.61 1010.87 1010.11 1009.33 1008.56 1007.79 1007.07 1006.42 1005.88 1005.46 1005.20 1005.08 1005.11 1005.25 1005.48 1005.76 1006.07 1006.36 1006.65 1006.91 1007.15 1007.38 1007.60 1007.82 1008.03 1008.24 1008.44 1008.64 1008.85 1009.06 1009.28 1009.54 1009.83 1010.16 1010.52 1010.90 1011.28 1011.64 1011.95 1012.21 1012.40 1012.52 1012.58 1012.59 1012.57
1014.24 1013.85 1013.36 1012.80 1012.18 1011.51 1010.77 1009.98 1009.14 1008.29 1007.47 1006.73 1006.11 1005.63 1005.32 1005.17 1005.16 1005.26 1005.43 1005.64 1005.87 1006.09 1006.32 1006.56 1006.80 1007.06 1007.32 1007.58 1007.81 1008.01 1008.16 1008.27 1008.35 1008.43 1008.54 1008.70 1008.95 1009.28 1009.70 1010.17 1010.67 1011.15 1011.57 1011.92 1012.16 1012.32 1012.40 1012.41 1012.40
1014.38 1014.07 1013.71 1013.27 1012.76 1012.15 1011.44 1010.62 1009.71 1008.76 1007.83 1006.98 1006.26 1005.71 1005.35 1005.16 1005.11 1005.17 1005.29 1005.44 1005.60 1005.77 1005.96 1006.19 1006.46 1006.76 1007.08 1007.39 1007.66 1007.86 1007.98 1008.01 1007.99 1007.95 1007.94 1008.01 1008.20 1008.52 1008.96 1009.49 1010.07 1010.64 1011.14 1011.56 1011.86 1012.05 1012.15 1012.20 1012.21
1014.30 1014.12 1013.89 1013.60 1013.20 1012.67 1011.98 1011.12 1010.13 1009.07 1008.01 1007.04 1006.22 1005.60 1005.18 1004.96 1004.89 1004.92 1005.01 1005.12 1005.25 1005.40 1005.58 1005.82 1006.12 1006.48 1006.87 1007.24 1007.56 1007.78 1007.87 1007.85 1007.75 1007.61 1007.50 1007.49 1007.62 1007.91 1008.36 1008.92 1009.54 1010.15 1010.70 1011.16 1011.49 1011.71 1011.85 1011.93 1011.98
1014.00 1013.94 1013.86 1013.72 1013.44 1012.98 1012.29 1011.39 1010.31 1009.13 1007.95 1006.86 1005.95 1005.26 1004.80 1004.56 1004.48 1004.52 1004.61 1004.73 1004.85 1005.00 1005.20 1005.47 1005.81 1006.22 1006.67 1007.10 1007.45 1007.69 1007.78 1007.73 1007.57 1007.37 1007.20 1007.14 1007.22 1007.48 1007.91 1008.47 1009.09 1009.71 1010.28 1010.74 1011.09 1011.33 1011.49 1011.61 1011.73
1013.53 1013.59 1013.65 1013.64 1013.46 1013.05 1012.37 1011.43 1010.26 1008.96 1007.66 1006.47 1005.47 1004.73 1004.25 1004.01 1003.96 1004.03 1004.16 1004.31 1004.47 1004.65 1004.87 1005.17 1005.54 1005.99 1006.47 1006.92 1007.30 1007.55 1007.64 1007.58 1007.40 1007.18 1006.98 1006.88 1006.95 1007.19 1007.60 1008.14 1008.74 1009.34 1009.88 1010.33 1010.67 1010.92 1011.11 1011.28 1011.46
1013.03 1013.18 1013.36 1013.44 1013.34 1012.98 1012.29 1011.30 1010.05 1008.66 1007.26 1005.97 1004.91 1004.13 1003.65 1003.43 1003.42 1003.55 1003.73 1003.94 1004.15 1004.37 1004.62 1004.94 1005.32 1005.77 1006.25 1006.70 1007.07 1007.31 1007.40 1007.33 1007.16 1006.94 1006.75 1006.67 1006.73 1006.97 1007.36 1007.88 1008.45 1009.01 1009.51 1009.93 1010.25 1010.51 1010.73 1010.95 1011.19
1012.65 1012.86 1013.10 1013.25 1013.20 1012.85 1012.16 1011.12 1009.81 1008.34 1006.87 1005.52 1004.40 1003.60 1003.12 1002.92 1002.95 1003.13 1003.38 1003.65 1003.91 1004.17 1004.45 1004.76 1005.14 1005.56 1006.00 1006.41 1006.74 1006.96 1007.03 1006.97 1006.81 1006.62 1006.47 1006.42 1006.51 1006.76 1007.15 1007.64 1008.17 1008.69 1009.15 1009.53 1009.84 1010.10 1010.35 1010.62 1010.93
1012.51 1012.74 1013.00 1013.18 1013.15 1012.81 1012.09 1011.03 1009.67 1008.15 1006.62 1005.22 1004.07 1003.24 1002.74 1002.55 1002.60 1002.82 1003.11 1003.42 1003.72 1004.01 1004.30 1004.61 1004.95 1005.33 1005.71 1006.06 1006.33 1006.50 1006.55 1006.49 1006.36 1006.21 1006.11 1006.11 1006.24 1006.51 1006.90 1007.38 1007.88 1008.36 1008.78 1009.13 1009.43 1009.70 1009.98 1010.30 1010.68
1012.71 1012.90 1013.15 1013.31 1013.27 1012.92 1012.19 1011.10 1009.73 1008.18 1006.61 1005.17 1003.97 1003.10 1002.56 1002.33 1002.37 1002.57 1002.87 1003.20 1003.52 1003.83 1004.12 1004.42 1004.74 1005.06 1005.38 1005.66 1005.87 1006.00 1006.02 1005.96 1005.85 1005.75 1005.69 1005.74 1005.91 1006.20 1006.60 1007.06 1007.54 1007.98 1008.38 1008.72 1009.02 1009.31 1009.62 1009.99 1010.43
1013.22 1013.35 1013.54 1013.67 1013.59 1013.22 1012.48 1011.39 1010.01 1008.45 1006.85 1005.37 1004.12 1003.17 1002.55 1002.24 1002.20 1002.35 1002.60 1002.91 1003.24 1003.55 1003.86 1004.16 1004.46 1004.76 1005.03 1005.27 1005.43 1005.52 1005.52 1005.46 1005.36 1005.29 1005.27 1005.35 1005.55 1005.85 1006.25 1006.69 1007.14 1007.57 1007.95 1008.29 1008.61 1008.93 1009.30 1009.72 1010.21
1013.99 1014.03 1014.15 1014.21 1014.09 1013.68 1012.93 1011.84 1010.47 1008.91 1007.30 1005.78 1004.45 1003.39 1002.65 1002.21 1002.04 1002.08 1002.25 1002.51 1002.81 1003.13 1003.46 1003.79 1004.12 1004.42 1004.70 1004.92 1005.07 1005.14 1005.13 1005.07 1004.98 1004.92 1004.92 1005.02 1005.21 1005.51 1005.88 1006.30 1006.73 1007.14 1007.52 1007.88 1008.23 1008.60 1009.02 1009.50 1010.04
1014.90 1014.85 1014.87 1014.85 1014.67 1014.23 1013.48 1012.40 1011.05 1009.50 1007.88 1006.30 1004.88 1003.70 1002.80 1002.19 1001.85 1001.74 1001.80 1001.99 1002.26 1002.60 1002.96 1003.35 1003.74 1004.10 1004.42 1004.68 1004.85 1004.93 1004.93 1004.87 1004.79 1004.73 1004.72 1004.79 1004.96 1005.22 1005.56 1005.94 1006.35 1006.75 1007.13 1007.52 1007.91 1008.34 1008.82 1009.36 1009.94
1015.83 1015.69 1015.62 1015.51 1015.26 1014.78 1014.02 1012.95 1011.62 1010.09 1008.46 1006.85 1005.34 1004.03 1002.97 1002.18 1001.66 1001.38 1001.32 1001.42 1001.67 1002.02 1002.44 1002.91 1003.39 1003.85 1004.26 1004.58 1004.81 1004.92 1004.94 1004.89 1004.80 1004.72 1004.68 1004.71 1004.83 1005.04 1005.32 1005.66 1006.04 1006.43 1006.83 1007.25 1007.70 1008.19 1008.73 1009.32 1009.94
Thickness
5805 5806 5804 5795 5777 5756 5757 5772 5783 5790 5798 5810 5814 5808 5799 5793 5785 5784 5807 5815 5812 5806 5800 5794 5789 5785 5781 5777 5774 5772 5769 5767 5765 5763 5761 5759 5756 5754 5752 5750 5748 5746 5744 5742 5741 5739 5738 5736 5735
5805 5805 5797 5783 5760 5746 5757 5777 5784 5794 5805 5814 5813 5809 5800 5797 5803 5803 5807 5810 5809 5804 5798 5793 5788 5784 5780 5776 5772 5770 5767 5764 5762 5759 5757 5755 5753 5750 5748 5746 5744 5743 5741 5740 5738 5736 5735 5734 5733
5805 5803 5785 5768 5755 5750 5766 5785 5791 5802 5811 5811 5805 5806 5801 5797 5803 5805 5808 5809 5805 5800 5795 5791 5787 5782 5778 5774 5770 5767 5765 5762 5759 5756 5754 5752 5749 5747 5745 5743 5741 5740 5738 5737 5736 5734 5733 5731 5730
5800 5790 5777 5761 5760 5766 5776 5789 5797 5799 5805 5809 5804 5797 5802 5808 5808 5809 5809 5807 5802 5796 5792 5788 5784 5780 5776 5772 5768 5765 5762 5759 5756 5753 5751 5749 5746 5743 5741 5740 5738 5737 5735 5734 5733 5731 5730 5729 5728
5794 5778 5762 5751 5760 5772 5783 5793 5799 5797 5798 5803 5801 5792 5793 5805 5810 5808 5806 5803 5798 5793 5789 5785 5782 5778 5774 5770 5766 5763 5759 5756 5753 5750 5748 5745 5743 5740 5738 5736 5735 5734 5732 5731 5729 5728 5727 5726 5725
5779 5768 5748 5746 5760 5776 5786 5796 5799 5796 5798 5800 5797 5789 5789 5801 5803 5801 5800 5798 5795 5791 5787 5782 5778 5774 5770 5767 5764 5760 5757 5753 5750 5748 5745 5742 5740 5738 5735 5734 5732 5731 5729 5728 5726 5725 5724 5723 5722
5773 5759 5751 5756 5759 5770 5788 5797 5796 5794 5794 5797 5799 5787 5788 5796 5799 5800 5797 5794 5790 5786 5782 5779 5775 5771 5767 5764 5761 5757 5754 5751 5748 5745 5742 5740 5737 5735 5733 5731 5729 5727 5726 5725 5723 5722 5721 5720 5719
5780 5763 5757 5754 5761 5770 5789 5794 5797 5795 5794 5804 5801 5786 5784 5794 5798 5795 5791 5787 5784 5781 5778 5775 5771 5767 5763 5760 5757 5754 5751 5748 5745 5742 5739 5737 5734 5732 5730 5729 5727 5725 5723 5722 5720 5719 5718 5717 5716
5783 5757 5750 5761 5767 5775 5788 5789 5794 5801 5798 5798 5800 5798 5800 5799 5794 5787 5782 5779 5776 5775 5772 5770 5767 5763 5760 5756 5753 5750 5747 5744 5741 5739 5736 5733 5731 5729 5727 5726 5724 5722 5721 5719 5718 5717 5715 5714 5714
5772 5752 5763 5776 5781 5783 5786 5788 5790 5791 5787 5788 5791 5795 5797 5792 5786 5781 5776 5773 5771 5769 5768 5766 5763 5760 5756 5752 5750 5747 5743 5740 5737 5735 5733 5730 5727 5725 5723 5722 5720 5719 5717 5716 5715 5714 5713 5711 5710
5774 5765 5774 5783 5788 5787 5785 5787 5790 5784 5778 5784 5786 5788 5788 5784 5780 5777 5775 5773 5771 5768 5765 5762 5758 5754 5751 5748 5745 5743 5739 5737 5734 5731 5728 5725 5723 5720 5719 5718 5716 5715 5714 5712 5712 5711 5709 5708 5707
5772 5776 5780 5784 5790 5786 5784 5785 5783 5782 5785 5795 5795 5792 5786 5781 5777 5775 5772 5769 5766 5763 5760 5757 5754 5750 5746 5743 5741 5738 5735 5732 5730 5727 5724 5721 5718 5716 5714 5713 5712 5711 5709 5708 5707 5706 5705 5704 5703
5771 5775 5782 5785 5784 5783 5783 5780 5779 5780 5790 5794 5793 5787 5782 5779 5776 5773 5771 5766 5761 5757 5755 5752 5750 5745 5743 5739 5736 5734 5731 5728 5726 5722 5719 5717 5715 5712 5710 5708 5708 5707 5706 5705 5703 5702 5701 5700 5700
5772 5773 5776 5779 5781 5782 5777 5775 5774 5777 5785 5784 5783 5779 5778 5775 5772 5768 5764 5760 5757 5754 5751 5748 5745 5742 5739 5736 5732 5729 5726 5723 5720 5717 5716 5713 5711 5709 5707 5705 5704 5703 5702 5701 5700 5698 5697 5696 5696
5772 5767 5769 5774 5775 5775 5773 5763 5767 5776 5778 5774 5773 5773 5771 5770 5768 5764 5762 5758 5755 5751 5748 5744 5742 5738 5735 5733 5729 5725 5721 5718 5715 5713 5710 5708 5706 5704 5703 5701 5700 5699 5697 5696 5695 5693 5692 5691 5691
5764 5753 5747 5762 5768 5770 5760 5745 5765 5772 5769 5765 5766 5766 5764 5763 5763 5762 5760 5756 5752 5748 5745 5742 5739 5735 5731 5727 5724 5720 5717 5714 5711 5708 5707 5705 5703 5700 5698 5697 5696 5695 5693 5691 5690 5688 5687 5686 5686
5740 5733 5736 5747 5760 5760 5751 5743 5759 5765 5762 5758 5758 5759 5758 5756 5756 5756 5755 5752 5748 5745 5740 5736 5733 5730 5727 5722 5718 5716 5712 5708 5705 5703 5701 5700 5698 5696 5695 5694 5692 5690 5688 5687 5685 5683 5681 5680 5680
5731 5731 5732 5734 5748 5749 5742 5741 5751 5756 5755 5751 5751 5751 5751 5750 5750 5751 5749 5747 5743 5739 5735 5731 5728 5725 5721 5716 5712 5708 5705 5702 5700 5698 5696 5694 5692 5691 5690 5689 5686 5685 5683 5681 5680 5678 5676 5675 5674
5740 5733 5727 5735 5747 5740 5736 5736 5742 5747 5746 5744 5743 5744 5743 5743 5745 5744 5743 5740 5736 5732 5729 5725 5722 5719 5715 5710 5705 5701 5698 5696 5694 5692 5690 5689 5687 5686 5685 5682 5680 5678 5677 5675 5674 5672 5670 5668 5667
5737 5728 5726 5733 5743 5739 5731 5730 5738 5741 5740 5740 5739 5738 5738 5737 5736 5736 5734 5731 5729 5726 5723 5720 5716 5713 5709 5705 5701 5697 5693 5690 5689 5686 5684 5683 5681 5680 5679 5676 5674 5672 5670 5668 5667 5665 5663 5661 5660
5734 5728 5727 5726 5731 5732 5726 5720 5728 5735 5737 5736 5735 5734 5733 5732 5729 5728 5727 5725 5722 5719 5717 5715 5711 5708 5704 5700 5695 5691 5688 5685 5682 5680 5678 5676 5675 5674 5671 5669 5666 5665 5663 5661 5660 5659 5656 5654 5652
5725 5738 5733 5728 5715 5704 5712 5694 5715 5721 5723 5727 5728 5727 5726 5726 5725 5723 5721 5719 5717 5715 5713 5710 5706 5702 5698 5694 5689 5684 5681 5677 5676 5674 5672 5670 5669 5666 5663 5661 5660 5657 5656 5655 5653 5652 5650 5648 5646
5734 5737 5729 5721 5710 5699 5699 5690 5699 5712 5713 5718 5721 5722 5721 5721 5720 5718 5717 5715 5712 5709 5706 5703 5699 5696 5693 5688 5683 5678 5675 5672 5669 5667 5665 5663 5661 5659 5656 5654 5653 5649 5648 5647 5646 5645 5644 5642 5641
5735 5726 5716 5702 5693 5682 5693 5684 5686 5699 5708 5713 5717 5718 5718 5717 5716 5714 5712 5709 5705 5702 5699 5695 5691 5688 5685 5681 5677 5672 5669 5666 5662 5660 5659 5656 5654 5651 5649 5647 5645 5643 5642 5640 5639 5639 5638 5636 5635
5722 5701 5680 5676 5667 5673 5689 5682 5685 5707 5711 5711 5712 5713 5713 5712 5709 5707 5704 5701 5697 5694 5690 5686 5683 5679 5677 5674 5670 5666 5663 5660 5657 5654 5652 5649 5645 5643 5641 5640 5637 5636 5635 5634 5633 5632 5631 5630 5629
5712 5699 5673 5661 5658 5666 5679 5677 5694 5710 5711 5710 5709 5707 5706 5704 5702 5699 5697 5694 5690 5686 5683 5679 5675 5671 5669 5666 5662 5659 5656 5654 5652 5649 5645 5642 5639 5637 5635 5632 5630 5629 5629 5628 5626 5625 5624 5623 5622
5705 5691 5688 5667 5662 5654 5664 5679 5695 5706 5704 5703 5702 5700 5697 5696 5694 5693 5691 5687 5683 5679 5676 5672 5668 5665 5662 5659 5656 5653 5651 5648 5645 5642 5640 5637 5634 5631 5629 5626 5624 5623 5621 5621 5620 5619 5618 5617 5616
5705 5689 5671 5659 5648 5644 5657 5666 5672 5688 5690 5692 5692 5691 5690 5689 5687 5685 5683 5680 5676 5673 5669 5666 5662 5659 5656 5654 5651 5648 5646 5643 5640 5636 5634 5631 5628 5626 5623 5620 5618 5617 5616 5615 5614 5613 5612 5611 5611
5692 5683 5666 5651 5646 5639 5637 5655 5683 5683 5684 5683 5685 5685 5684 5683 5681 5679 5676 5673 5669 5667 5664 5661 5657 5654 5652 5650 5647 5644 5641 5639 5635 5631 5628 5626 5623 5621 5618 5615 5613 5612 5611 5610 5609 5607 5606 5606 5606
5689 5679 5662 5648 5644 5638 5633 5650 5685 5681 5680 5678 5679 5680 5679 5677 5675 5672 5668 5665 5662 5660 5658 5655 5652 5649 5647 5645 5641 5637 5634 5632 5628 5626 5623 5620 5618 5616 5613 5611 5609 5607 5606 5605 5604 5602 5602 5601 5601